Regional Weather Roundup
Issued by NWS Austin/San Antonio, TX

Current Version | Previous Version | Text Only | Print | Product List | Glossary On
Versions: 1 2 3 4 5 6 7 8 9 10 11 12 13 14 15 16 17 18 19 20 21 22 23 24 25 26 27 28 29 30 31 32 33 34 35 36 37 38 39 40 41 42 43 44 45 46 47 48 49 50
000
ASUS44 KEWX 202310
RWREWX
SOUTH TEXAS REGIONAL WEATHER ROUNDUP
NATIONAL WEATHER SERVICE AUSTIN/SAN ANTONIO TX
600 PM CDT SUN JUN 20 2021

NOTE: "FAIR" INDICATED FEW OR NO CLOUDS BELOW 12,000 FEET WITH NO
SIGNIFICANT WEATHER AND/OR OBSTRUCTIONS TO VISIBILITY.

* - THESE STATIONS ARE NOT NWS OR FAA STATIONS...AND ARE NOT SUBJECT
    TO NWS AND FAA QUALITY CONTROL.

TXZ171-172-183>190-210000-
TEXAS HILL COUNTRY AND EDWARDS PLATEAU

CITY           SKY/WX    TMP DP  RH WIND       PRES   REMARKS
JUNCTION       MOSUNNY   96  65  35 S12       29.74F HX  98
*LLANO         MOSUNNY   93  68  43 S13G20    29.73F HX  97
BURNET         MOSUNNY   91  71  51 SE12G20   29.78F HX  97
*HORSESHOE BAY MOSUNNY   92  69  47 S8        29.76S HX  96
*LAGO VISTA    PTSUNNY   94  71  47 S9G18     29.78F HX 102
*KERRVILLE     PTSUNNY   89  74  60 SE15      29.78S HX  97
*FREDERICKSBRG MOSUNNY   89  66  45 S12G21    29.78S HX  91
*ROCKSPRINGS     N/A     91  66  43 MISG      29.83S HX  94
*BOERNE        MOSUNNY   86  70  58 S10       29.79S HX  90
*CASTROVILLE   MOSUNNY   92  72  50 SE15      29.75F HX 100
HONDO          PTSUNNY   91  73  55 S16       29.74F HX  99
*UVALDE        PTSUNNY   93  69  45 SE9G17    29.73S HX  98
DEL RIO        MOSUNNY  104  67  30 SE16G28   29.64F HX 109
*LAUGHLIN AFB  NOT AVBL
*SPOFFORD      NOT AVBL
*EAGLE PASS    SUNNY    100  63  28 SE12G17   29.65F HX 102
CARRIZO SPRGS  PTSUNNY  100  64  30 SE8       29.65F HX 103
$$

TXZ173-191>194-202-209-217>225-228-210000-
CENTRAL AND SOUTH CENTRAL TEXAS

CITY           SKY/WX    TMP DP  RH WIND       PRES   REMARKS
GEORGETOWN     PTSUNNY   91  72  53 SE12G17   29.77F HX  98
*TAYLOR        PTSUNNY  N/A N/A N/A S14       29.76S
AUSTIN/BERGSTM PTSUNNY   90  73  57 SE13G21   29.75S HX  98
AUSTIN/MABRY   PTSUNNY   93  72  50 S8        29.76F HX 101
*PFLUGERVILLE  PTSUNNY   90  72  55 SE14      29.75F HX  96
SAN MARCOS     PTSUNNY   90  76  63 SE15      29.77S HX 101
NEW BRAUNFELS  LGT RAIN  92  74  55 S16       29.75S HX 101
*RANDOLPH AFB  NOT AVBL
*SEGUIN        NOT AVBL
SAN ANTONIO    PTSUNNY   88  74  63 SE17G25   29.75F HX  96
STINSON FIELD  MOSUNNY   94  76  55 S15       29.72F HX 106
*KELLY FIELD   NOT AVBL
*PLEASANTON    MOSUNNY   89  74  61 SE9       29.75S HX  97
*KENEDY        NOT AVBL
*LA GRANGE     PTSUNNY   90  79  70 S10       29.76S HX 105
*GIDDINGS      PTSUNNY   89  74  62 S9        29.78F HX  97
*GONZALES      PTSUNNY   89  75  64 S14G20    29.77S HX  99
$$

TXZ163>164-176>182-195>201-210>213-226-227-235-210000-
SOUTHEAST TEXAS

CITY           SKY/WX    TMP DP  RH WIND       PRES   REMARKS
COLLEGE STN    PTSUNNY   92  75  57 S13       29.76F HX 103
*BRYAN         PTSUNNY   91  75  59 S10       29.78S HX 101
*CALDWELL      PTSUNNY   89  75  63 S12       29.77F HX  99
*CROCKETT      PTSUNNY   90  75  62 S10       29.77F HX 100
*BRENHAM       PTSUNNY   92  78  63 S12G18    29.78S HX 106
HUNTSVILLE     PTSUNNY   92  73  53 S9G20     29.78F HX 100
CONROE         PTSUNNY   89  76  65 S12       29.79F HX 100
HOUSTON BUSH   CLOUDY    90  74  59 S10G18    29.79F HX  99
HOUSTON HOBBY  PTSUNNY   89  77  67 S17       29.80S HX 101
*HOUSTON SW AP PTSUNNY   87  78  76 S7        29.82S HX 100
PEARLAND       PTSUNNY   88  77  69 S15       29.82F HX 100
HOUSTON HOOKS  PTSUNNY   87  76  69 S10       29.79F HX  97
ELLINGTON FLD  PTSUNNY   86  79  79 S12G23    29.80F HX  99
SUGAR LAND     PTSUNNY   91  77  63 S15       29.79F HX 104
*HOUSTON EXEC    N/A     88  77  70 S16       29.81  HX 100
*CLEVELAND MUN PTSUNNY   87  76  70 S8        29.82R HX  97
*WHARTON         N/A     87  73  61 S14       29.81S HX  94
*COLUMBUS      PTSUNNY   86  76  70 S13G18    29.80S HX  96
*EAGLE LAKE    NOT AVBL
$$

TXZ214>216-236>238-210000-
THE UPPER TEXAS COAST

CITY           SKY/WX    TMP DP  RH WIND       PRES   REMARKS
*ORANGE        CLOUDY    85  77  76 CALM      29.85F HX  96
PORT ARTHUR    CLOUDY    84  78  82 S10       29.83S HX  95
GALVESTON      CLOUDY    87  77  72 S18       29.83F HX  99
ANGLETON       LGT RAIN  85  77  77 S14       29.82S HX  95
*BAY CITY      PTSUNNY   85  79  83 S10       29.81F HX  98
PALACIOS       PTSUNNY   86  79  79 S14       29.80S HX  99
$$

TXZ229>234-239>247-210000-
TEXAS COASTAL BEND AND RIO GRANDE PLAINS

CITY           SKY/WX    TMP DP  RH WIND       PRES   REMARKS
VICTORIA       PTSUNNY   87  76  69 S15G23    29.78S HX  97
*BEEVILLE      PTSUNNY   87  83  89 SE10      29.74F HX 109
ROCKPORT       PTSUNNY   88  79  74 S14G23    29.76F HAZE    HX 103
*PORT ARANSAS  PTSUNNY   86  79  78 SE17G26   29.78S HX 100
*PORT LAVACA   PTSUNNY   86  78  76 SE8       29.79F HX  99
*INGLESIDE     PTSUNNY   88  79  74 S21       29.75F HX 102
CORPUS CHRISTI PTSUNNY   89  79  72 SE20G29   29.75S HX 104
CORPUS NAS     CLOUDY    87  79  76 S22G31    29.76S HX 101
*ROBSTOWN      PTSUNNY   91  81  73 SE16G24   29.75S HX 110
ALICE          MOSUNNY   90  79  70 SE14      29.72S HX 106
KINGSVILLE NAS PTSUNNY   89  80  74 SE16G22   29.73S HX 106
COTULLA        PTSUNNY   97  74  47 E13       29.69F HX 108
LAREDO         PTSUNNY  100  71  39 SE14      29.67F HX 108
$$

TXZ248>255-210000-
DEEP SOUTH TEXAS

CITY           SKY/WX    TMP DP  RH WIND       PRES   REMARKS
BROWNSVILLE    PTSUNNY   88  76  67 S20G30    29.74F HX  99
PORT ISABEL    PTSUNNY   88  76  67 S21G32    29.74S HX  99
HARLINGEN      PTSUNNY   89  78  70 S20       29.73S HX 103
*HEBBRONVILLE  PTSUNNY   92  62  36 SE12G20   29.73F HX  93
MCALLEN        PTSUNNY   89  76  65 SE17G24   29.72S HX 100
*WESLACO       PTSUNNY   88  76  67 S16G24    29.72S HX  99
FALFURRIAS     MOSUNNY   91  75  59 SE12G18   29.71F HX 101
EDINBURG       PTSUNNY   90  79  70 S15       29.72S HX 105
*ZAPATA        PTSUNNY  100  71  39 SE9G17    29.69S HX 108
$$

TXZ213>215-236>238-242>244-246-247-251-254-255-210000-
CMAN STATIONS

STATION/POSITION TIME  TEMP    WIND        PRES    WAVE
                       AIR SEA DIR/SP/G            HT/PER
                 (UTC) (F)     (DEG/KT/KT) (MB)    (FT/S)
NORTH JETTY/GLS  2230   86 86  180/ 16/ 19 1008.9
EAGLE POINT      2230   86 87  200/ 16/ 19 1009.3
MORGANS POINT    2230   86 87  180/  7/ 13 1009.5
MISSION/ARANSAS  2200   85     140/ 18     1009.0
PORT O`CONNOR    2230   84 90  180/ 16/ 20 1008.7
PORT ARANSAS     2300   85 86  150/ 23/ 25   N/A
MALAQUITE BEACH  2230   85     130/ 22/ 26   N/A
BAFFIN BAY       2230   85 89  130/ 20/ 25 1006.7
PORT ISABEL      2230   87 86  160/ 19/ 24 1008.6
$$



USA.gov is the U.S. government's official web portal to all federal, state and local government web resources and services.